TimeCST,TemperatureF,Dew PointF,Humidity,Sea Level PressureIn,VisibilityMPH,Wind Direction,Wind SpeedMPH,Gust SpeedMPH,PrecipitationIn,Events,Conditions,WindDirDegrees,DateUTC
12:52 AM,25.0,14.0,63,30.26,10.0,NW,6.9,-,N/A,,Clear,310,2013-01-16 06:52:00
1:52 AM,25.0,14.0,63,30.27,10.0,WNW,6.9,-,N/A,,Clear,300,2013-01-16 07:52:00
2:52 AM,24.1,14.0,65,30.27,10.0,West,5.8,-,N/A,,Clear,280,2013-01-16 08:52:00
3:52 AM,18.0,12.9,81,30.27,10.0,SSW,4.6,-,N/A,,Clear,210,2013-01-16 09:52:00
4:52 AM,18.0,14.0,84,30.26,10.0,SW,6.9,-,N/A,,Clear,220,2013-01-16 10:52:00
5:52 AM,19.9,12.9,74,30.27,10.0,Calm,Calm,-,N/A,,Clear,0,2013-01-16 11:52:00
6:52 AM,21.0,15.1,78,30.27,10.0,WSW,4.6,-,N/A,,Clear,240,2013-01-16 12:52:00
7:52 AM,19.9,15.1,81,30.28,10.0,SW,6.9,-,N/A,,Clear,230,2013-01-16 13:52:00
8:52 AM,24.1,17.1,75,30.30,10.0,WSW,5.8,-,N/A,,Clear,240,2013-01-16 14:52:00
9:52 AM,30.9,21.0,67,30.29,10.0,West,10.4,-,N/A,,Clear,260,2013-01-16 15:52:00
10:52 AM,37.9,21.9,53,30.27,10.0,West,10.4,-,N/A,,Clear,260,2013-01-16 16:52:00
11:52 AM,43.0,19.0,38,30.22,10.0,West,11.5,-,N/A,,Clear,270,2013-01-16 17:52:00
12:52 PM,46.0,14.0,28,30.19,10.0,West,6.9,16.1,N/A,,Partly Cloudy,260,2013-01-16 18:52:00
1:52 PM,48.0,12.9,24,30.17,10.0,WNW,12.7,-,N/A,,Partly Cloudy,290,2013-01-16 19:52:00
2:52 PM,48.2,12.2,24,30.15,10.0,WNW,10.4,-,N/A,,Scattered Clouds,290,2013-01-16 20:52:00
3:52 PM,48.9,15.1,26,30.17,10.0,West,8.1,-,N/A,,Mostly Cloudy,280,2013-01-16 21:52:00
4:52 PM,48.0,17.1,29,30.17,10.0,WNW,6.9,-,N/A,,Mostly Cloudy,300,2013-01-16 22:52:00
5:52 PM,46.9,19.0,33,30.18,10.0,NW,5.8,-,N/A,,Mostly Cloudy,310,2013-01-16 23:52:00
6:52 PM,46.0,18.0,33,30.20,10.0,Calm,Calm,-,N/A,,Partly Cloudy,0,2013-01-17 00:52:00
7:52 PM,44.1,19.0,37,30.22,10.0,WNW,4.6,-,N/A,,Clear,290,2013-01-17 01:52:00
8:52 PM,42.1,25.0,51,30.23,10.0,WNW,9.2,-,N/A,,Clear,300,2013-01-17 02:52:00
9:52 PM,39.9,27.0,60,30.24,10.0,WNW,8.1,-,N/A,,Clear,300,2013-01-17 03:52:00
10:52 PM,39.9,28.0,63,30.25,10.0,WNW,8.1,-,N/A,,Clear,300,2013-01-17 04:52:00
11:52 PM,39.0,28.0,65,30.26,10.0,WNW,8.1,-,N/A,,Clear,300,2013-01-17 05:52:00